DW6451 Weather Reports


Display with metric or nautical units.
time (UTC)temp
F
wind
direction
speed
MPH
gust
MPH
rain 1hr
in
rain 24hr
in
rain mn
in
humidity
%
barometer
mb
20260502163003 57 38 2.0 5.0 0.00 0.00 0.00 32 1014.6
20260502161558 57 13 0.0 4.0 0.00 0.00 0.00 34 1014.8
20260502151608 54 242 0.0 5.0 0.00 0.00 0.00 39 1015.5
20260502123001 35 94 0.0 0.0 0.00 0.00 0.00 87 1016.9
20260502121559 32 94 0.0 0.0 0.00 0.00 0.00 91 1016.9
20260502114531 28 94 0.0 0.0 0.00 0.00 0.00 91 1016.9
20260502113034 27 94 0.0 0.0 0.00 0.00 0.00 89 1016.8
20260502111530 27 94 0.0 0.0 0.00 0.00 0.00 89 1016.8
20260502110032 27 94 0.0 0.0 0.00 0.00 0.00 89 1016.7
20260502104533 28 94 0.0 0.0 0.00 0.00 0.00 88 1016.8
20260502103026 28 94 0.0 0.0 0.00 0.00 0.00 88 1016.8
20260502101526 28 94 0.0 0.0 0.00 0.00 0.00 88 1016.8
20260502091518 29 94 0.0 0.0 0.00 0.00 0.00 86 1016.8
20260502071503 30 94 0.0 0.0 0.00 0.00 0.00 84 1017.1
20260502070005 30 94 0.0 0.0 0.00 0.00 0.00 84 1017.3
20260502064602 31 94 0.0 0.0 0.00 0.00 0.00 83 1017.3
20260502063113 31 94 0.0 0.0 0.00 0.00 0.00 82 1017.4
20260502061554 31 94 0.0 0.0 0.00 0.00 0.00 81 1017.3
20260502060056 32 94 0.0 1.0 0.00 0.00 0.00 81 1017.4
20260502054601 32 94 0.0 0.0 0.00 0.00 0.00 80 1017.4
20260502053051 32 94 0.0 0.0 0.00 0.00 0.00 79 1017.5
20260502051548 33 94 0.0 0.0 0.00 0.00 0.00 78 1017.4
20260502050050 34 94 0.0 0.0 0.00 0.00 0.00 77 1017.4
20260502044543 34 94 0.0 0.0 0.00 0.00 0.00 77 1017.3
20260502043053 35 94 0.0 0.0 0.00 0.00 0.00 75 1017.4
20260502041608 36 94 0.0 0.0 0.00 0.00 0.00 74 1017.3
20260502040051 36 94 0.0 0.0 0.00 0.00 0.00 72 1017.4
20260502034545 37 94 0.0 0.0 0.00 0.00 0.00 72 1017.4
20260502033041 38 94 0.0 0.0 0.00 0.00 0.00 69 1017.4
20260502031540 39 94 0.0 0.0 0.00 0.00 0.00 68 1017.4
20260502030057 39 94 0.0 0.0 0.00 0.00 0.00 66 1017.3
20260502024550 40 94 0.0 0.0 0.00 0.00 0.00 63 1017.5
20260502023048 41 94 0.0 0.0 0.00 0.00 0.00 60 1017.5
20260502021534 42 94 0.0 1.0 0.00 0.00 0.00 58 1017.4
20260502020034 43 94 0.0 0.0 0.00 0.00 0.00 55 1017.4
20260502014538 44 94 0.0 0.0 0.00 0.00 0.00 51 1017.3
20260502013034 45 94 0.0 0.0 0.00 0.00 0.00 50 1017.2
20260502011536 45 94 0.0 0.0 0.00 0.00 0.00 47 1017.1
20260502010032 46 94 0.0 2.0 0.00 0.00 0.00 45 1017.2
20260502004531 47 94 0.0 3.0 0.00 0.00 0.00 45 1017.2
20260502003031 47 94 0.0 3.0 0.00 0.00 0.00 44 1017.2
20260502001538 48 132 1.0 4.0 0.00 0.00 0.00 44 1017.2
20260502000049 48 78 1.0 3.0 0.00 0.00 0.00 43 1017.2
20260501234529 48 79 0.0 3.0 0.00 0.00 0.00 42 1017.2
20260501233029 49 75 0.0 4.0 0.00 0.00 0.00 42 1017.4
20260501231529 49 55 0.0 4.0 0.00 0.00 0.00 43 1017.3
20260501224527 49 39 1.0 5.0 0.00 0.00 0.00 43 1017.4
20260501223026 50 48 2.0 4.0 0.00 0.00 0.00 45 1017.5
20260501221526 50 9 2.0 4.0 0.00 0.00 0.00 43 1017.5
20260501220024 50 28 2.0 5.0 0.00 0.00 0.00 43 1017.5
20260501214523 50 40 3.0 5.0 0.00 0.00 0.00 43 1017.5
20260501213027 50 72 1.0 4.0 0.00 0.00 0.00 44 1017.6
20260501211522 50 68 1.0 5.0 0.00 0.00 0.00 45 1017.7
20260501210020 49 136 1.0 7.0 0.00 0.00 0.00 43 1017.8
20260501204519 49 42 2.0 8.0 0.00 0.00 0.00 45 1018.0
20260501203024 49 24 2.0 9.0 0.00 0.00 0.00 45 1018.0
20260501201517 49 40 1.0 7.0 0.00 0.00 0.00 48 1018.1
20260501200015 49 57 1.0 5.0 0.00 0.00 0.00 47 1018.2
20260501194516 48 28 2.0 7.0 0.00 0.00 0.00 48 1018.2
20260501193012 47 64 2.0 8.0 0.00 0.00 0.00 49 1018.3
20260501191510 47 59 3.0 7.0 0.00 0.00 0.00 47 1018.3
20260501190009 47 34 3.0 8.0 0.00 0.00 0.00 47 1018.4
20260501184506 46 20 3.0 10.0 0.00 0.00 0.00 47 1018.4
20260501183005 46 28 2.0 8.0 0.00 0.00 0.00 47 1018.4
20260501181504 45 341 1.0 9.0 0.00 0.00 0.00 49 1018.5
20260501180006 45 88 3.0 7.0 0.00 0.00 0.00 47 1018.6
20260501174502 45 40 2.0 7.0 0.00 0.00 0.00 50 1018.7